Volver al catálogo

STARLINK-37459

ActivoComunicacionesSSO
NORAD 68814·PAYLOAD·🇺🇸 United States

Lanzado Apr 23, 2026 desde Vandenberg Space Force Base

Loading…

Próximos Pases (próximas 24 horas)

TLE

ActualizadoSource: CelesTrak SupGP

Época: Sep 14, 2026, 21:04 UTC

1 68814C 26089N   26257.87826389  .00054251  00000+0  16847-2 0  2576
2 68814  97.2852 103.7147 0001932  93.6382  34.2957 15.33399778    17

Sigue STARLINK-37459 en tiempo real con AllMySat

Download on the App Store